Location: Devore Heights
(34.2372°N, 117.4156°W)
Time: 19:28:46
(UTC+00:00)

S-56A Canister/Altair - Pass Details

Date: 17 September 2024
Orbit: 636 x 2487 km, 38.9° (Epoch: 14 October)

Event Time Altitude Azimuth Distance (km) Brightness Sun altitude
Rises 06:49:37 0° 290° (WNW) 4,092 11.6 -51.5°
Reaches altitude 10° 06:52:02 10° 288° (WNW) 3,333 11.0 -51.7°
Enters shadow 06:52:27 12° 288° (WNW) 3,208 10.9 -51.8°
Maximum altitude 07:00:41 70° 207° (SSW) 1,831 - -52.3°
Drops below altitude 10° 07:13:34 10° 128° (SE) 4,807 - -53.0°
Sets 07:17:47 0° 126° (SE) 5,976 - -53.2°
